Date,TemperatureHighF,TemperatureAvgF,TemperatureLowF,DewpointHighF,DewpointAvgF,DewpointLowF,HumidityHigh,HumidityAvg,HumidityLow,PressureMaxIn,PressureMinIn,WindSpeedMaxMPH,WindSpeedAvgMPH,GustSpeedMaxMPH,PrecipitationSumIn
2013-7-1,98.6,75.7,59.7,70.7,61.8,56.1,90,65,38,29.00,28.88,7,3,7,0.00
2013-7-2,92.5,71.6,56.3,67.0,58.4,51.7,90,66,39,29.06,29.00,8,3,8,0.00
2013-7-3,89.4,66.5,52.9,61.8,52.9,47.3,87,65,35,29.11,29.03,8,3,8,0.00
2013-7-4,78.3,63.3,51.1,55.8,50.7,46.4,88,66,44,29.11,29.03,8,3,8,0.00
2013-7-5,84.6,63.4,51.4,56.9,50.9,46.0,83,66,37,29.04,28.94,7,2,7,0.00
2013-7-6,88.2,63.9,50.7,60.2,52.6,46.7,88,70,35,28.96,28.84,8,3,8,0.00
2013-7-7,82.4,63.4,54.0,60.8,53.8,48.9,90,73,45,28.95,28.87,7,3,7,0.00
2013-7-8,89.8,66.6,53.2,62.9,54.2,48.5,85,67,40,29.07,28.95,8,3,8,0.00
2013-7-9,93.9,72.8,55.8,65.0,58.2,50.0,90,64,37,29.05,28.97,8,2,8,0.00
2013-7-10,82.2,63.7,50.7,57.6,51.1,44.1,90,66,39,29.05,28.94,7,3,7,0.00
2013-7-11,82.9,62.3,48.2,53.9,47.3,43.3,85,61,35,29.05,28.95,9,3,9,0.00
2013-7-12,78.6,60.1,47.7,55.0,48.2,43.1,88,67,42,29.08,28.97,7,2,7,0.00
2013-7-13,87.1,65.8,46.4,54.7,47.1,40.8,86,55,26,29.13,29.03,8,3,8,0.00
2013-7-15,93.9,82.0,69.1,56.8,48.7,42.5,46,32,24,28.88,28.81,8,4,8,0.00
2013-7-16,99.3,76.5,60.8,64.5,52.3,41.0,76,44,27,28.94,28.78,9,2,9,0.00
2013-7-17,85.3,65.1,54.9,59.4,54.0,49.7,85,69,41,29.15,28.94,9,3,9,0.00
2013-7-18,89.2,66.9,50.9,61.2,53.8,47.3,89,66,38,29.18,29.05,8,3,8,0.00
2013-7-19,86.7,64.7,52.9,63.4,54.5,49.4,90,72,43,29.11,28.99,8,4,8,0.00
2013-7-20,86.4,71.8,55.2,61.6,57.6,50.8,86,63,43,29.06,28.94,6,2,6,0.00
2013-7-21,71.4,71.4,71.4,58.2,58.2,58.2,63,63,63,29.02,29.02,2,2,2,0.00
2013-7-22,86.9,73.3,58.6,63.0,57.9,53.5,83,61,45,29.02,28.95,6,2,6,0.00
2013-7-23,95.0,70.1,54.7,65.8,57.7,51.5,91,68,36,29.03,28.93,8,2,8,0.00
2013-7-24,95.2,70.7,52.5,64.0,56.3,49.4,92,64,35,29.02,28.97,7,2,7,0.00
2013-7-25,92.3,69.2,50.0,62.4,54.1,46.6,89,63,36,29.06,28.98,7,3,7,0.00
2013-7-26,90.3,67.9,50.4,62.1,52.3,45.8,89,61,32,29.13,29.02,7,3,7,0.00
2013-7-27,85.1,64.0,51.8,56.1,50.6,45.8,85,65,34,29.15,29.00,8,2,8,0.00
2013-7-28,78.4,60.6,52.7,56.8,51.2,47.4,84,73,46,29.03,28.97,6,2,6,0.00
2013-7-29,61.3,60.7,55.4,56.1,55.5,50.3,84,83,81,29.03,28.99,4,2,4,0.00
2013-7-30,88.9,65.4,53.2,61.4,54.4,49.5,90,70,39,29.13,29.00,7,2,7,0.00
2013-7-31,81.0,64.0,54.9,61.3,55.2,50.5,91,75,49,29.08,28.97,8,2,8,0.00